Time,TemperatureF,DewpointF,PressureIn,WindDirection,WindDirectionDegrees,WindSpeedMPH,WindSpeedGustMPH,Humidity,HourlyPrecipIn,Conditions,Clouds,dailyrainin,SolarRadiationWatts/m^2,SoftwareType,DateUTC
2013-05-19 00:01:00,44.0,37.0,-100.00,SSW,205,6.0,11.0,75,0.00,,,0.01,1.000000,,2013-05-19 07:01:00,
2013-05-19 00:32:00,44.0,37.0,-100.00,SW,217,5.0,9.0,76,0.00,,,-99.99,1.000000,,2013-05-19 07:32:00,
2013-05-19 00:42:00,44.0,37.0,-100.00,SW,217,5.0,9.0,76,0.00,,,-99.99,1.000000,,2013-05-19 07:42:00,
2013-05-19 00:52:00,44.0,37.0,-100.00,SW,217,5.0,9.0,76,0.00,,,-99.99,1.000000,,2013-05-19 07:52:00,
2013-05-19 01:01:00,44.0,37.0,-100.00,SW,217,5.0,9.0,76,0.00,,,-99.99,1.000000,,2013-05-19 08:01:00,
2013-05-19 01:02:00,42.0,36.0,-100.00,SSW,197,5.0,8.0,79,0.00,,,0.01,1.000000,,2013-05-19 08:02:00,
2013-05-19 01:32:00,42.0,36.0,-100.00,SSW,197,5.0,8.0,79,0.00,,,0.01,1.000000,,2013-05-19 08:32:00,
2013-05-19 01:42:00,42.0,36.0,-100.00,SSW,197,5.0,8.0,79,0.00,,,0.01,1.000000,,2013-05-19 08:42:00,
2013-05-19 01:52:00,42.0,36.0,-100.00,SSW,197,5.0,8.0,79,0.00,,,0.01,1.000000,,2013-05-19 08:52:00,
2013-05-19 02:02:00,42.0,36.0,-100.00,SSW,203,7.0,9.0,80,0.00,,,0.01,1.000000,,2013-05-19 09:02:00,
2013-05-19 02:33:00,42.0,36.0,-100.00,SSW,203,7.0,9.0,80,0.00,,,0.01,1.000000,,2013-05-19 09:33:00,
2013-05-19 02:43:00,42.0,36.0,-100.00,SSW,203,7.0,9.0,80,0.00,,,0.01,1.000000,,2013-05-19 09:43:00,
2013-05-19 02:53:00,42.0,36.0,-100.00,SSW,203,7.0,9.0,80,0.00,,,0.01,1.000000,,2013-05-19 09:53:00,
2013-05-19 03:02:00,41.0,36.0,-100.00,SSW,197,5.0,8.0,82,0.00,,,0.01,1.000000,,2013-05-19 10:02:00,
2013-05-19 03:23:00,41.0,36.0,-100.00,SSW,197,5.0,8.0,82,0.00,,,0.01,1.000000,,2013-05-19 10:23:00,
2013-05-19 03:33:00,41.0,36.0,-100.00,SSW,197,5.0,8.0,82,0.00,,,0.01,1.000000,,2013-05-19 10:33:00,
2013-05-19 03:42:00,41.0,36.0,-100.00,SSW,197,5.0,8.0,82,0.00,,,0.01,1.000000,,2013-05-19 10:42:00,
2013-05-19 03:52:00,41.0,36.0,-100.00,SSW,197,5.0,8.0,82,0.00,,,0.01,1.000000,,2013-05-19 10:52:00,
2013-05-19 04:32:00,40.0,35.0,-100.00,SSW,193,4.0,8.0,82,0.00,,,0.01,1.000000,,2013-05-19 11:32:00,
2013-05-19 04:42:00,40.0,35.0,-100.00,SSW,193,4.0,8.0,82,0.00,,,0.01,1.000000,,2013-05-19 11:42:00,
2013-05-19 04:52:00,40.0,35.0,-100.00,SSW,193,4.0,8.0,82,0.00,,,0.01,1.000000,,2013-05-19 11:52:00,
2013-05-19 05:01:00,40.0,35.0,-100.00,SSW,193,4.0,8.0,82,0.00,,,0.01,1.000000,,2013-05-19 12:01:00,
2013-05-19 05:32:00,39.0,35.0,-100.00,SW,221,5.0,9.0,85,0.00,,,0.01,1.000000,,2013-05-19 12:32:00,
2013-05-19 05:42:00,39.0,35.0,-100.00,SW,221,5.0,9.0,85,0.00,,,0.01,1.000000,,2013-05-19 12:42:00,
2013-05-19 05:52:00,39.0,35.0,-100.00,SW,221,5.0,9.0,85,0.00,,,0.01,1.000000,,2013-05-19 12:52:00,
2013-05-19 06:01:00,39.0,35.0,-100.00,SW,221,5.0,9.0,85,0.00,,,0.01,1.000000,,2013-05-19 13:01:00,
2013-05-19 07:32:00,41.0,37.0,-100.00,WSW,248,4.0,6.0,86,-99.99,,,0.01,47.000000,,2013-05-19 14:32:00,
2013-05-19 07:42:00,41.0,37.0,-100.00,WSW,248,4.0,6.0,86,-99.99,,,0.01,47.000000,,2013-05-19 14:42:00,
2013-05-19 07:52:00,41.0,37.0,-100.00,WSW,248,4.0,6.0,86,-99.99,,,0.01,47.000000,,2013-05-19 14:52:00,
2013-05-19 08:01:00,41.0,37.0,-100.00,WSW,248,4.0,6.0,86,-99.99,,,0.01,47.000000,,2013-05-19 15:01:00,
2013-05-19 08:02:00,47.0,38.0,-100.00,SW,222,5.0,11.0,71,0.00,,,0.01,183.000000,,2013-05-19 15:02:00,
2013-05-19 08:33:00,47.0,38.0,-100.00,SW,222,5.0,11.0,71,0.00,,,0.01,183.000000,,2013-05-19 15:33:00,
2013-05-19 08:43:00,47.0,38.0,-100.00,SW,222,5.0,11.0,71,0.00,,,0.01,183.000000,,2013-05-19 15:43:00,
2013-05-19 08:53:00,47.0,38.0,-100.00,SW,222,5.0,11.0,71,0.00,,,0.01,183.000000,,2013-05-19 15:53:00,
2013-05-19 09:32:00,50.0,39.0,-100.00,WSW,249,4.0,7.0,67,0.00,,,-99.99,294.000000,,2013-05-19 16:32:00,
2013-05-19 09:42:00,50.0,39.0,-100.00,WSW,249,4.0,7.0,67,0.00,,,-99.99,294.000000,,2013-05-19 16:42:00,
2013-05-19 09:52:00,50.0,39.0,-100.00,WSW,249,4.0,7.0,67,0.00,,,-99.99,294.000000,,2013-05-19 16:52:00,
2013-05-19 10:01:00,50.0,39.0,-100.00,WSW,249,4.0,7.0,67,0.00,,,-99.99,294.000000,,2013-05-19 17:01:00,
2013-05-19 10:02:00,52.0,39.0,-100.00,NE,42,2.0,8.0,60,0.00,,,0.01,336.000000,,2013-05-19 17:02:00,
2013-05-19 10:32:00,52.0,39.0,-100.00,NE,42,2.0,8.0,60,0.00,,,0.01,336.000000,,2013-05-19 17:32:00,
2013-05-19 10:42:00,52.0,39.0,-100.00,NE,42,2.0,8.0,60,0.00,,,0.01,336.000000,,2013-05-19 17:42:00,
2013-05-19 10:52:00,52.0,39.0,-100.00,NE,42,2.0,8.0,60,0.00,,,0.01,336.000000,,2013-05-19 17:52:00,
2013-05-19 11:32:00,56.0,40.0,-100.00,NNE,28,5.0,10.0,55,0.00,,,0.01,688.000000,,2013-05-19 18:32:00,
2013-05-19 11:43:00,56.0,40.0,-100.00,NNE,28,5.0,10.0,55,0.00,,,0.01,688.000000,,2013-05-19 18:43:00,
2013-05-19 11:53:00,56.0,40.0,-100.00,NNE,28,5.0,10.0,55,0.00,,,0.01,688.000000,,2013-05-19 18:53:00,
2013-05-19 12:01:00,56.0,40.0,-100.00,NNE,28,5.0,10.0,55,0.00,,,0.01,688.000000,,2013-05-19 19:01:00,
2013-05-19 12:02:00,58.0,38.0,-100.00,North,9,4.0,10.0,48,0.00,,,0.01,773.000000,,2013-05-19 19:02:00,
2013-05-19 12:32:00,58.0,38.0,-100.00,North,9,4.0,10.0,48,0.00,,,0.01,773.000000,,2013-05-19 19:32:00,
2013-05-19 12:42:00,58.0,38.0,-100.00,North,9,4.0,10.0,48,0.00,,,0.01,773.000000,,2013-05-19 19:42:00,
2013-05-19 12:52:00,58.0,38.0,-100.00,North,9,4.0,10.0,48,0.00,,,0.01,773.000000,,2013-05-19 19:52:00,
2013-05-19 13:02:00,60.0,39.0,-100.00,NNW,348,7.0,15.0,46,0.00,,,0.01,842.000000,,2013-05-19 20:02:00,
2013-05-19 13:32:00,60.0,39.0,-100.00,NNW,348,7.0,15.0,46,0.00,,,0.01,842.000000,,2013-05-19 20:32:00,
2013-05-19 13:42:00,60.0,39.0,-100.00,NNW,348,7.0,15.0,46,0.00,,,0.01,842.000000,,2013-05-19 20:42:00,
2013-05-19 13:52:00,60.0,39.0,-100.00,NNW,348,7.0,15.0,46,0.00,,,0.01,842.000000,,2013-05-19 20:52:00,
2013-05-19 14:02:00,62.0,39.0,-100.00,North,352,7.0,17.0,42,0.00,,,0.01,928.000000,,2013-05-19 21:02:00,
2013-05-19 14:32:00,62.0,39.0,-100.00,North,352,7.0,17.0,42,0.00,,,0.01,928.000000,,2013-05-19 21:32:00,
2013-05-19 14:43:00,62.0,39.0,-100.00,North,352,7.0,17.0,42,0.00,,,0.01,928.000000,,2013-05-19 21:43:00,
2013-05-19 14:53:00,62.0,39.0,-100.00,North,352,7.0,17.0,42,0.00,,,0.01,928.000000,,2013-05-19 21:53:00,
2013-05-19 15:02:00,64.0,37.0,-100.00,NNW,330,7.0,17.0,37,0.00,,,0.01,1003.000000,,2013-05-19 22:02:00,
2013-05-19 15:33:00,64.0,37.0,-100.00,NNW,330,7.0,17.0,37,0.00,,,0.01,1003.000000,,2013-05-19 22:33:00,
2013-05-19 15:42:00,64.0,37.0,-100.00,NNW,330,7.0,17.0,37,0.00,,,0.01,1003.000000,,2013-05-19 22:42:00,
2013-05-19 15:53:00,64.0,37.0,-100.00,NNW,330,7.0,17.0,37,0.00,,,0.01,1003.000000,,2013-05-19 22:53:00,
2013-05-19 16:32:00,63.0,36.0,-100.00,North,6,13.0,22.0,36,0.00,,,0.01,821.000000,,2013-05-19 23:32:00,
2013-05-19 16:42:00,63.0,36.0,-100.00,North,6,13.0,22.0,36,0.00,,,0.01,821.000000,,2013-05-19 23:42:00,
2013-05-19 16:52:00,63.0,36.0,-100.00,North,6,13.0,22.0,36,0.00,,,0.01,821.000000,,2013-05-19 23:52:00,
2013-05-19 17:01:00,63.0,36.0,-100.00,North,6,13.0,22.0,36,0.00,,,0.01,821.000000,,2013-05-20 00:01:00,
2013-05-19 17:22:00,62.0,33.0,-100.00,North,358,12.0,21.0,34,0.00,,,0.01,696.000000,,2013-05-20 00:22:00,
2013-05-19 17:32:00,62.0,33.0,-100.00,North,358,12.0,21.0,34,0.00,,,0.01,696.000000,,2013-05-20 00:32:00,
2013-05-19 17:42:00,62.0,33.0,-100.00,North,358,12.0,21.0,34,0.00,,,0.01,696.000000,,2013-05-20 00:42:00,
2013-05-19 17:52:00,62.0,33.0,-100.00,North,358,12.0,21.0,34,0.00,,,0.01,696.000000,,2013-05-20 00:52:00,
2013-05-19 18:01:00,62.0,33.0,-100.00,North,358,12.0,21.0,34,0.00,,,0.01,696.000000,,2013-05-20 01:01:00,
2013-05-19 18:32:00,60.0,33.0,-100.00,North,354,11.0,18.0,36,0.00,,,0.01,538.000000,,2013-05-20 01:32:00,
2013-05-19 18:42:00,60.0,33.0,-100.00,North,354,11.0,18.0,36,0.00,,,0.01,538.000000,,2013-05-20 01:42:00,
2013-05-19 18:52:00,60.0,33.0,-100.00,North,354,11.0,18.0,36,0.00,,,0.01,538.000000,,2013-05-20 01:52:00,
2013-05-19 19:01:00,60.0,33.0,-100.00,North,354,11.0,18.0,36,0.00,,,0.01,538.000000,,2013-05-20 02:01:00,
2013-05-19 19:22:00,57.0,33.0,-100.00,North,355,11.0,18.0,40,0.00,,,0.01,329.000000,,2013-05-20 02:22:00,
2013-05-19 19:32:00,57.0,33.0,-100.00,North,355,11.0,18.0,40,0.00,,,0.01,329.000000,,2013-05-20 02:32:00,
2013-05-19 19:42:00,57.0,33.0,-100.00,North,355,11.0,18.0,40,0.00,,,0.01,329.000000,,2013-05-20 02:42:00,
2013-05-19 19:52:00,57.0,33.0,-100.00,North,355,11.0,18.0,40,0.00,,,0.01,329.000000,,2013-05-20 02:52:00,
2013-05-19 20:01:00,57.0,33.0,-100.00,North,355,11.0,18.0,40,0.00,,,0.01,329.000000,,2013-05-20 03:01:00,
2013-05-19 20:02:00,53.0,34.0,-100.00,North,5,9.0,18.0,48,0.00,,,0.01,147.000000,,2013-05-20 03:02:00,
2013-05-19 20:33:00,53.0,34.0,-100.00,North,5,9.0,18.0,48,0.00,,,0.01,147.000000,,2013-05-20 03:33:00,
2013-05-19 20:43:00,53.0,34.0,-100.00,North,5,9.0,18.0,48,0.00,,,0.01,147.000000,,2013-05-20 03:43:00,
2013-05-19 20:52:00,53.0,34.0,-100.00,North,5,9.0,18.0,48,0.00,,,0.01,147.000000,,2013-05-20 03:52:00,
2013-05-19 21:02:00,48.0,35.0,-100.00,ENE,62,7.0,12.0,60,0.00,,,0.01,11.000000,,2013-05-20 04:02:00,
2013-05-19 21:33:00,48.0,35.0,-100.00,ENE,62,7.0,12.0,60,0.00,,,0.01,11.000000,,2013-05-20 04:33:00,
2013-05-19 21:43:00,48.0,35.0,-100.00,ENE,62,7.0,12.0,60,0.00,,,0.01,11.000000,,2013-05-20 04:43:00,
2013-05-19 21:52:00,48.0,35.0,-100.00,ENE,62,7.0,12.0,60,0.00,,,0.01,11.000000,,2013-05-20 04:52:00,
2013-05-19 22:32:00,47.0,35.0,-100.00,ENE,71,8.0,11.0,62,0.00,,,0.00,1.000000,,2013-05-20 05:32:00,
2013-05-19 22:42:00,47.0,35.0,-100.00,ENE,71,8.0,11.0,62,0.00,,,0.00,1.000000,,2013-05-20 05:42:00,
2013-05-19 22:52:00,47.0,35.0,-100.00,ENE,71,8.0,11.0,62,0.00,,,0.00,1.000000,,2013-05-20 05:52:00,
2013-05-19 23:01:00,47.0,35.0,-100.00,ENE,71,8.0,11.0,62,0.00,,,0.00,1.000000,,2013-05-20 06:01:00,
2013-05-19 23:32:00,45.0,35.0,-100.00,ENE,74,9.0,12.0,68,0.00,,,0.00,1.000000,,2013-05-20 06:32:00,
2013-05-19 23:42:00,45.0,35.0,-100.00,ENE,74,9.0,12.0,68,0.00,,,0.00,1.000000,,2013-05-20 06:42:00,
2013-05-19 23:52:00,45.0,35.0,-100.00,ENE,74,9.0,12.0,68,0.00,,,0.00,1.000000,,2013-05-20 06:52:00,